Terminal Aerodrome Forecast
Issued by NWS

Home | Current Version | Previous Version | Text Only | Print | Product List | Glossary On
Versions: 1 2 3 4 5 6 7 8 9 10 11 12 13 14 15 16 17 18 19 20 21 22
703
FTUS45 KRIW 241808 AAA
TAFCOD
TAF AMD
KCOD 241808Z 2418/2518 01010KT P6SM VCSH SCT016 OVC040
      TEMPO 2418/2421 OVC016
     FM250300 31007KT P6SM VCSH SCT012 OVC025
     FM250700 VRB04KT P6SM VCSH SCT020 OVC040
     FM251200 03007KT P6SM BKN040
      AMD LTD TO CLD VIS AND WIND=

USA.gov is the U.S. government's official web portal to all federal, state and local government web resources and services.